Kelso-Longview, WA
on Friday, December 21, 2012

Friday
Previous Day Next Day
Daily Summary
 ActualAverage (KSPB)Record (KSPB)
Temperature
Mean Temperature °F °F  
Max Temperature 44°F °F 51°F (1999)
Min Temperature 37°F °F 12°F (1998)
Degree Days
Heating Degree Days 24    
Month to date heating degree days  
Since 1 July heating degree days  
Cooling Degree Days 0    
Month to date cooling degree days  
Year to date cooling degree days  
Moisture
Dew Point 36°F   
Average Humidity 85    
Maximum Humidity 93    
Minimum Humidity 76    
Precipitation
Precipitation 0.07 in in 1.15 in (2005)
Month to date precipitation  
Year to date precipitation  
Wind
Wind Speed 5 mph   
Max Wind Speed 13 mph   
Max Gust Speed 18 mph   
Visibility 10 miles   
Events     

Key: T is trace of precipitation, MM is missing value
Source: NWS Daily Summary
Time(PST)TemperatureDew PointHumidity Pressure Visibility Wind DirectionWind SpeedGust SpeedPrecipitationEvents Conditions
12:15 AM 37.4°F 33.8°F 87% 29.80 in 10.0 miles ESE 5.8 mph - N/A   Overcast
12:35 AM 37.4°F 33.8°F 87% 29.80 in 10.0 miles SSE 3.5 mph - N/A   Overcast
12:55 AM 37.4°F 33.8°F 87% 29.79 in 10.0 miles SE 4.6 mph - N/A   Overcast
1:15 AM 37.4°F 33.8°F 87% 29.78 in 10.0 miles SE 4.6 mph - N/A   Mostly Cloudy
1:35 AM 37.4°F 33.8°F 87% 29.79 in 10.0 miles SE 4.6 mph - N/A   Scattered Clouds
1:55 AM 37.4°F 33.8°F 87% 29.78 in 10.0 miles SE 6.9 mph - N/A   Scattered Clouds
2:15 AM 37.4°F 33.8°F 87% 29.78 in 10.0 miles SE 6.9 mph - N/A   Clear
2:35 AM 37.4°F 33.8°F 87% 29.77 in 10.0 miles SE 5.8 mph - N/A   Partly Cloudy
2:55 AM 37.4°F 33.8°F 87% 29.77 in 10.0 miles SSE 4.6 mph - N/A   Clear
3:15 AM 37.4°F 33.8°F 87% 29.76 in 10.0 miles SE 5.8 mph - N/A   Clear
3:35 AM 37.4°F 33.8°F 87% 29.76 in 10.0 miles SE 4.6 mph - N/A   Mostly Cloudy
3:55 AM 37.4°F 33.8°F 87% 29.75 in 10.0 miles SSE 4.6 mph - N/A   Overcast
4:15 AM 37.4°F 33.8°F 87% 29.75 in 10.0 miles SE 3.5 mph - N/A   Overcast
4:35 AM 37.4°F 33.8°F 87% 29.75 in 10.0 miles SSE 6.9 mph - N/A   Overcast
4:55 AM 37.4°F 33.8°F 87% 29.75 in 10.0 miles ESE 3.5 mph - N/A   Overcast
5:15 AM 37.4°F 33.8°F 87% 29.74 in 10.0 miles SE 6.9 mph - N/A   Mostly Cloudy
5:35 AM 37.4°F 33.8°F 87% 29.73 in 10.0 miles SE 4.6 mph - N/A   Overcast
5:55 AM 37.4°F 33.8°F 87% 29.75 in 10.0 miles ESE 3.5 mph - N/A   Overcast
6:15 AM 37.4°F 33.8°F 87% 29.74 in 10.0 miles SE 5.8 mph - N/A   Overcast
6:35 AM 37.4°F 33.8°F 87% 29.74 in 10.0 miles SE 6.9 mph - 0.01 in   Overcast
6:55 AM 37.4°F 33.8°F 87% 29.73 in 10.0 miles East 4.6 mph - 0.01 in   Overcast
7:15 AM 37.4°F 33.8°F 87% 29.75 in 10.0 miles SE 5.8 mph - N/A   Overcast
7:35 AM 37.4°F 33.8°F 87% 29.75 in 10.0 miles ESE 6.9 mph - N/A   Overcast
7:55 AM 37.4°F 35.6°F 93% 29.75 in 10.0 miles SE 6.9 mph - 0.01 in   Overcast
8:15 AM 39.2°F 35.6°F 87% 29.75 in 10.0 miles SE 10.4 mph - N/A   Overcast
8:35 AM 39.2°F 35.6°F 87% 29.75 in 10.0 miles SE 12.7 mph 18.4 mph N/A   Overcast
8:55 AM 39.2°F 35.6°F 87% 29.75 in 10.0 miles SSE 12.7 mph 18.4 mph N/A   Overcast
9:15 AM 39.2°F 35.6°F 87% 29.75 in 10.0 miles SE 11.5 mph 17.3 mph 0.01 in   Overcast
9:35 AM 39.2°F 35.6°F 87% 29.76 in 10.0 miles SE 8.1 mph - 0.01 in   Overcast
9:55 AM 39.2°F 35.6°F 87% 29.77 in 10.0 miles SE 9.2 mph - 0.01 in   Overcast
10:15 AM 39.2°F 35.6°F 87% 29.78 in 10.0 miles SE 6.9 mph - N/A   Overcast
10:35 AM 41.0°F 37.4°F 87% 29.78 in 10.0 miles SE 3.5 mph - N/A   Overcast
10:55 AM 41.0°F 37.4°F 87% 29.78 in 10.0 miles SE 4.6 mph - N/A   Overcast
11:15 AM 42.8°F 37.4°F 81% 29.78 in 10.0 miles South 4.6 mph - N/A   Overcast
11:35 AM 42.8°F 37.4°F 81% 29.78 in 10.0 miles South 8.1 mph - N/A   Overcast
11:55 AM 42.8°F 37.4°F 81% 29.77 in 10.0 miles South 5.8 mph - N/A   Overcast
12:15 PM 42.8°F 37.4°F 81% 29.77 in 10.0 miles South 5.8 mph - N/A   Overcast
12:35 PM 42.8°F 39.2°F 87% 29.76 in 10.0 miles SSW 3.5 mph - N/A   Overcast
12:55 PM 44.6°F 37.4°F 76% 29.75 in 10.0 miles South 5.8 mph - N/A   Overcast
1:15 PM 44.6°F 37.4°F 76% 29.74 in 10.0 miles SSE 4.6 mph - N/A   Overcast
1:35 PM 44.6°F 37.4°F 76% 29.74 in 10.0 miles SE 3.5 mph - N/A   Overcast
1:55 PM 44.6°F 39.2°F 81% 29.73 in 10.0 miles SSE 5.8 mph - N/A   Overcast
2:15 PM 44.6°F 39.2°F 81% 29.73 in 10.0 miles South 4.6 mph - N/A   Overcast
2:35 PM 44.6°F 39.2°F 81% 29.73 in 10.0 miles SE 4.6 mph - N/A   Overcast
2:55 PM 44.6°F 39.2°F 81% 29.73 in 10.0 miles SSE 4.6 mph - N/A   Overcast
3:15 PM 44.6°F 39.2°F 81% 29.72 in 10.0 miles SSE 4.6 mph - N/A   Overcast
3:35 PM 44.6°F 39.2°F 81% 29.73 in 10.0 miles South 3.5 mph - N/A   Overcast
3:55 PM 44.6°F 39.2°F 81% 29.72 in 10.0 miles SE 3.5 mph - N/A   Overcast
4:15 PM 44.6°F 39.2°F 81% 29.72 in 10.0 miles Calm Calm - N/A   Mostly Cloudy
4:35 PM 44.6°F 39.2°F 81% 29.71 in 10.0 miles Calm Calm - N/A   Mostly Cloudy
4:55 PM 42.8°F 39.2°F 87% 29.71 in 10.0 miles Calm Calm - N/A   Overcast
5:15 PM 42.8°F 39.2°F 87% 29.71 in 10.0 miles Calm Calm - N/A   Overcast
5:35 PM 42.8°F 39.2°F 87% 29.71 in 10.0 miles ESE 3.5 mph - N/A   Overcast
5:55 PM 42.8°F 39.2°F 87% 29.70 in 10.0 miles SE 3.5 mph - N/A   Overcast
6:15 PM 42.8°F 37.4°F 81% 29.69 in 10.0 miles SE 3.5 mph - N/A   Overcast
6:35 PM 42.8°F 37.4°F 81% 29.69 in 10.0 miles SE 3.5 mph - N/A   Overcast
6:55 PM 42.8°F 37.4°F 81% 29.69 in 10.0 miles ESE 4.6 mph - N/A   Overcast
7:15 PM 42.8°F 37.4°F 81% 29.69 in 10.0 miles ESE 4.6 mph - N/A   Overcast
7:35 PM 42.8°F 37.4°F 81% 29.70 in 10.0 miles SE 4.6 mph - 0.01 in   Overcast
7:55 PM 42.8°F 37.4°F 81% 29.70 in 9.0 miles SE 4.6 mph - 0.02 in   Overcast
8:15 PM 42.8°F 37.4°F 81% 29.70 in 10.0 miles SE 5.8 mph - 0.01 in   Overcast
8:35 PM 42.8°F 37.4°F 81% 29.69 in 10.0 miles East 4.6 mph - 0.02 in   Overcast
8:55 PM 42.8°F 37.4°F 81% 29.68 in 10.0 miles Calm Calm - 0.02 in   Overcast
9:15 PM 41.0°F 37.4°F 87% 29.68 in 10.0 miles Calm Calm - N/A   Overcast
9:35 PM 41.0°F 37.4°F 87% 29.67 in 10.0 miles Calm Calm - N/A   Mostly Cloudy
9:55 PM 39.2°F 37.4°F 93% 29.67 in 10.0 miles Calm Calm - N/A   Overcast
10:15 PM 39.2°F 37.4°F 93% 29.65 in 10.0 miles Calm Calm - N/A   Mostly Cloudy
10:35 PM 39.2°F 37.4°F 93% 29.65 in 10.0 miles Calm Calm - N/A   Mostly Cloudy
10:55 PM 39.2°F 37.4°F 93% 29.65 in 10.0 miles Calm Calm - N/A   Partly Cloudy
11:15 PM 39.2°F 37.4°F 93% 29.65 in 10.0 miles ESE 6.9 mph - N/A   Scattered Clouds
11:35 PM 41.0°F 37.4°F 87% 29.64 in 10.0 miles ESE 4.6 mph - N/A   Partly Cloudy
11:55 PM 41.0°F 37.4°F 87% 29.62 in 10.0 miles ESE 5.8 mph - N/A   Partly Cloudy
Moon Phase
Dec. 21 Dec. 28 Jan. 04 Jan. 11 Jan. 18
Sunrise:07:51 AM (PST) Moon Rise:12:30 PM (PST)12/21
Sunset:04:28 PM (PST) Moon Set:01:29 AM (PST)12/21

Copyright © 2014 The Weather Underground, Inc.